{"data":{"norad_id":59661,"epoch":"2026-09-21T18:37:04.986624Z","epoch_age_seconds":61109,"freshness":"FRESH","line1":"1 59661U 24084H   26264.77575216  .00000445  00000+0  25687-4 0  9999","line2":"2 59661  43.0007  10.8063 0000647 251.9948 108.0834 15.27578054134406","mean_motion":15.27578054,"eccentricity":6.47e-5,"inclination_deg":43.0007,"raan_deg":10.8063,"arg_perigee_deg":251.9948,"mean_anomaly_deg":108.0834,"bstar":2.5687e-5,"rev_number":13440,"period_min":94.266868801193,"perigee_km":482.61100395249,"apogee_km":483.49884218733,"semimajor_km":6861.1919230699,"source":"CELESTRAK","updated_at":"2026-09-22T09:00:49.026132Z"}}